Rt 113 & Rt 16, Ellendale DE USA current weather conditions

sailwx.info

Wind from 180 at 4 knots gusting 7

Air temperature 19.9° C
Dewpoint 17.9° C

Last reported at 2020-Sep-29 04:00 UTC.
Time now 2020-Sep-29 04:33 UTC

Location: N 38°48' W 075°26'.
View on Google Maps.

See reports from other nearby stations

  
Tides and Currents Weather Stations Pressure Air Temp Water Temp Dewpoint Dewpoint Depression Visibility Wind Speed Wind Dir Waves Ship Positions
date/time (UTC)wind fromknots sea level pressurealtimeterstation pressurevisibilityair tempwater tempwave heightnotes
2020-Sep-29 04:00 180 4 gusting 7 19.9
2020-Sep-29 03:50 180 6 gusting 9 19.9
2020-Sep-29 03:45 180 4 gusting 8 19.9
2020-Sep-29 03:40 180 5 gusting 7 19.9
2020-Sep-29 03:35 180 4 gusting 8 19.9
2020-Sep-29 03:30 180 5 gusting 8 19.9
2020-Sep-29 03:25 180 5 gusting 7 19.8
2020-Sep-29 03:20 180 5 gusting 7 19.8
2020-Sep-29 03:15 180 5 gusting 8 19.9
2020-Sep-29 03:10 180 5 gusting 8 19.9
2020-Sep-29 03:05 180 5 gusting 8 19.9
2020-Sep-29 03:00 180 4 gusting 7 19.9
2020-Sep-29 02:55 180 4 gusting 8 19.9
2020-Sep-29 02:50 180 6 gusting 8 19.9
2020-Sep-29 02:45 180 4 gusting 9 19.9
2020-Sep-29 02:40 180 4 gusting 9 19.9
2020-Sep-29 02:35 180 5 gusting 7 19.9
2020-Sep-29 02:30 180 4 gusting 7 19.9
2020-Sep-29 02:25 180 4 gusting 7 19.9
2020-Sep-29 02:20 010 5 gusting 7 19.9
2020-Sep-29 02:15 010 5 gusting 9 20.1
2020-Sep-29 02:10 010 4 gusting 9 20.1
2020-Sep-29 02:05 010 5 gusting 8 20.1
2020-Sep-29 02:00 010 4 gusting 8 20.1
2020-Sep-29 01:55 010 4 gusting 9 20.1
2020-Sep-29 01:50 010 5 gusting 9 20.4
2020-Sep-29 01:45 010 5 gusting 9 20.4
2020-Sep-29 01:40 010 5 gusting 9 20.4
2020-Sep-29 01:35 010 5 gusting 9 20.4
2020-Sep-29 01:30 010 5 gusting 9 20.4
2020-Sep-29 01:25 010 5 gusting 9 20.6
2020-Sep-29 01:20 010 5 gusting 8 20.6
2020-Sep-29 01:15 010 6 gusting 10 20.6
2020-Sep-29 01:10 010 7 gusting 10 20.6
2020-Sep-29 01:05 010 5 gusting 7 20.6
2020-Sep-29 01:00 010 4 gusting 7 20.6
2020-Sep-29 00:55 010 3 gusting 6 20.6
2020-Sep-29 00:50 010 4 gusting 6 20.8
2020-Sep-29 00:45 010 3 gusting 6 20.8
2020-Sep-29 00:40 010 4 gusting 6 20.9
2020-Sep-29 00:35 010 4 gusting 7 21.1
2020-Sep-29 00:30 010 5 gusting 7 21.1
2020-Sep-29 00:25 010 4 gusting 7 21.1
2020-Sep-29 00:20 010 5 gusting 7 21.2
2020-Sep-29 00:15 010 3 gusting 6 21.2
2020-Sep-29 00:10 010 4 gusting 6 21.2
2020-Sep-29 00:05 010 3 gusting 7 21.4
2020-Sep-29 00:00 010 4 gusting 7 21.6
2020-Sep-28 23:55 010 4 gusting 7 21.8
2020-Sep-28 23:50 010 3 gusting 7 21.9
2020-Sep-28 23:45 010 4 gusting 7 21.9
2020-Sep-28 23:40 010 5 gusting 9 22.1
2020-Sep-28 23:35 010 4 gusting 9 22.1
2020-Sep-28 23:30 010 5 gusting 7 22.4
2020-Sep-28 23:25 010 4 gusting 9 22.4
2020-Sep-28 23:20 010 7 gusting 9 22.6
2020-Sep-28 23:15 010 5 gusting 9 22.8
2020-Sep-28 23:10 010 5 gusting 8 22.9
2020-Sep-28 23:05 010 4 gusting 10 23.1
2020-Sep-28 23:00 010 3 gusting 10 23.2
2020-Sep-28 22:55 010 6 gusting 8 23.4
2020-Sep-28 22:50 010 6 gusting 9 23.6
2020-Sep-28 22:45 010 5 gusting 10 23.9
2020-Sep-28 22:40 010 6 gusting 10 24.1
2020-Sep-28 22:35 010 6 gusting 10 24.4
2020-Sep-28 22:30 010 4 gusting 9 24.6
2020-Sep-28 22:25 010 6 gusting 9 24.9
2020-Sep-28 22:20 010 6 gusting 10 25.1
2020-Sep-28 22:15 010 6 gusting 13 25.4
2020-Sep-28 22:10 180 8 gusting 13 25.4
2020-Sep-28 22:05 180 9 gusting 12 25.8
2020-Sep-28 22:00 180 6 gusting 12 25.9
2020-Sep-28 21:55 180 8 gusting 13 26.1
2020-Sep-28 21:50 180 8 gusting 13 26.4
2020-Sep-28 21:45 180 7 gusting 11 26.6
2020-Sep-28 21:40 180 5 gusting 10 27.1
2020-Sep-28 21:35 180 6 gusting 10 27.2
2020-Sep-28 21:30 180 5 gusting 9 27.6
2020-Sep-28 21:25 180 3 gusting 6 27.6
2020-Sep-28 21:20 180 3 gusting 6 27.6
2020-Sep-28 21:15 180 4 gusting 7 27.6
2020-Sep-28 21:10 180 4 gusting 8 27.4
2020-Sep-28 21:05 180 5 gusting 8 27.2
2020-Sep-28 21:00 180 5 gusting 9 27.6
2020-Sep-28 20:55 180 6 gusting 12 27.8
2020-Sep-28 20:50 180 6 gusting 12 28.1
2020-Sep-28 20:45 180 7 gusting 12 28.6
2020-Sep-28 20:40 180 6 gusting 12 28.6
2020-Sep-28 20:35 180 8 gusting 12 28.4
2020-Sep-28 20:30 180 5 gusting 13 28.2
2020-Sep-28 20:25 180 8 gusting 13 28.4
2020-Sep-28 20:20 180 6 gusting 13 28.4
2020-Sep-28 20:15 180 6 gusting 12 28.6
2020-Sep-28 20:10 180 8 gusting 12 28.6
2020-Sep-28 20:05 180 8 gusting 11 29.1
2020-Sep-28 20:00 180 7 gusting 10 29.2
2020-Sep-28 19:55 180 6 gusting 10 29.4
2020-Sep-28 19:50 180 7 gusting 10 29.4
2020-Sep-28 19:45 180 5 gusting 11 29.4
2020-Sep-28 19:40 180 7 gusting 11 29.6
2020-Sep-28 19:35 180 7 gusting 14 29.6
2020-Sep-28 19:30 180 10 gusting 14 29.4
2020-Sep-28 19:25 180 7 gusting 14 29.2
2020-Sep-28 19:20 180 9 gusting 13 29.2
2020-Sep-28 19:15 180 7 gusting 11 29.1
2020-Sep-28 19:10 180 4 gusting 11 29.2
2020-Sep-28 19:05 180 8 gusting 10 29.4
2020-Sep-28 19:00 180 6 gusting 11 29.8
2020-Sep-28 18:55 180 7 gusting 11 29.6
2020-Sep-28 18:50 180 6 gusting 11 29.4
2020-Sep-28 18:45 180 6 gusting 11 29.8
2020-Sep-28 18:40 180 6 gusting 11 29.4
2020-Sep-28 18:35 180 4 gusting 10 29.4
2020-Sep-28 18:30 180 6 gusting 12 29.4
2020-Sep-28 18:25 180 6 gusting 12 29.1
2020-Sep-28 18:20 180 5 gusting 9 29.6
2020-Sep-28 18:15 180 5 gusting 11 29.1
2020-Sep-28 18:10 180 8 gusting 11 28.6
2020-Sep-28 18:05 180 6 gusting 10 28.2
2020-Sep-28 18:00 180 7 gusting 10 28.8
2020-Sep-28 17:55 180 6 gusting 10 28.8
2020-Sep-28 17:50 180 7 gusting 10 28.9
2020-Sep-28 17:45 180 3 gusting 9 29.1
2020-Sep-28 17:40 180 6 gusting 10 28.9
2020-Sep-28 17:35 180 6 gusting 11 28.9
2020-Sep-28 17:30 180 7 gusting 11 28.6
2020-Sep-28 17:25 180 7 gusting 12 28.6
2020-Sep-28 17:20 180 7 gusting 12 28.6
2020-Sep-28 17:15 180 6 gusting 12 28.4
2020-Sep-28 17:10 180 9 gusting 12 28.4
2020-Sep-28 17:05 180 6 gusting 15 28.6
2020-Sep-28 17:00 180 10 gusting 15 28.4
2020-Sep-28 16:55 180 7 gusting 14 28.4
2020-Sep-28 16:50 180 9 gusting 15 28.1
2020-Sep-28 16:45 180 10 gusting 15 27.9
2020-Sep-28 16:40 180 10 gusting 14 28.4
2020-Sep-28 16:35 180 10 gusting 13 28.1
2020-Sep-28 16:30 180 9 gusting 13 28.1
2020-Sep-28 16:25 180 7 gusting 13 28.1
2020-Sep-28 16:20 180 7 gusting 13 28.1
2020-Sep-28 16:15 180 7 gusting 12 27.8
2020-Sep-28 16:10 180 7 gusting 12 27.6
2020-Sep-28 16:05 180 6 gusting 12 27.6
2020-Sep-28 16:00 005 8 gusting 12 27.1
2020-Sep-28 15:55 005 8 gusting 12 27.4
2020-Sep-28 15:50 005 8 gusting 11 27.4
2020-Sep-28 15:45 005 5 gusting 11 27.4
2020-Sep-28 15:40 005 6 gusting 11 27.2
2020-Sep-28 15:35 005 7 gusting 9 27.1
2020-Sep-28 15:30 005 6 gusting 10 27.1
2020-Sep-28 15:25 005 7 gusting 11 27.1
2020-Sep-28 15:20 005 8 gusting 11 26.6
2020-Sep-28 15:15 005 5 gusting 10 26.8
2020-Sep-28 15:10 005 6 gusting 10 26.1
2020-Sep-28 15:05 005 7 gusting 10 26.1
2020-Sep-28 15:00 005 5 gusting 10 25.6
2020-Sep-28 14:55 005 7 gusting 10 25.4
2020-Sep-28 14:50 005 7 gusting 12 25.4
2020-Sep-28 14:45 005 7 gusting 12 25.1
2020-Sep-28 14:40 005 6 gusting 10 24.8
2020-Sep-28 14:35 005 7 gusting 10 24.4
2020-Sep-28 14:30 005 6 gusting 10 24.1
2020-Sep-28 14:25 180 6 gusting 9 23.6
2020-Sep-28 14:20 180 7 gusting 10 23.1
2020-Sep-28 14:15 180 7 gusting 10 22.6
2020-Sep-28 14:10 005 6 gusting 9 22.4
2020-Sep-28 14:05 180 6 gusting 9 21.6
2020-Sep-28 14:00 005 6 gusting 10 21.6
2020-Sep-28 13:55 005 7 gusting 11 21.4
2020-Sep-28 13:50 120 8 gusting 11 21.2
2020-Sep-28 13:45 120 6 gusting 11 21.2
2020-Sep-28 13:40 120 5 gusting 11 21.1
2020-Sep-28 13:35 120 4 gusting 8 20.9
2020-Sep-28 13:30 120 5 gusting 7 20.6
2020-Sep-28 13:25 120 5 gusting 8 20.6
2020-Sep-28 13:20 120 5 gusting 8 20.4
2020-Sep-28 13:15 120 5 gusting 7 20.4
2020-Sep-28 13:10 120 3 gusting 7 20.4
2020-Sep-28 13:05 120 5 gusting 8 20.2
2020-Sep-28 13:00 120 5 gusting 9 20.1
2020-Sep-28 12:55 120 4 gusting 9 20.1
2020-Sep-28 12:50 120 5 gusting 10 20.1
2020-Sep-28 12:45 120 6 gusting 10 20.1
2020-Sep-28 12:40 120 7 gusting 10 19.9
2020-Sep-28 12:35 120 6 gusting 10 20.1
2020-Sep-28 12:30 120 5 gusting 7 19.9
2020-Sep-28 12:25 120 5 gusting 7 19.9
2020-Sep-28 12:20 120 3 gusting 6 19.9
2020-Sep-28 12:15 120 4 gusting 5 19.9
2020-Sep-28 12:10 120 4 gusting 5 19.8
2020-Sep-28 12:05 120 3 gusting 5 19.8
2020-Sep-28 12:00 120 3 gusting 8 19.6
2020-Sep-28 11:55 120 4 gusting 8 19.6
2020-Sep-28 11:50 120 4 gusting 6 19.6
2020-Sep-28 11:45 120 3 gusting 5 19.6
2020-Sep-28 11:40 120 1 gusting 5 19.4
2020-Sep-28 11:35 120 3 gusting 5 19.4
2020-Sep-28 11:30 120 3 gusting 5 19.4
2020-Sep-28 11:25 120 3 gusting 6 19.4
2020-Sep-28 11:20 120 3 gusting 5 19.4
2020-Sep-28 11:15 120 3 gusting 5 19.4
2020-Sep-28 11:10 120 2 gusting 5 19.4
2020-Sep-28 11:05 120 2 gusting 5 19.4
2020-Sep-28 11:00 120 1 gusting 4 19.4
2020-Sep-28 10:55 120 3 gusting 4 19.4
2020-Sep-28 10:50 120 2 gusting 4 19.4
2020-Sep-28 10:45 120 2 gusting 3 19.4
2020-Sep-28 10:40 120 2 gusting 5 19.4
2020-Sep-28 10:35 120 2 gusting 5 19.4
2020-Sep-28 10:30 120 2 gusting 4 19.4
2020-Sep-28 10:25 120 2 gusting 4 19.4
2020-Sep-28 10:20 120 2 gusting 4 19.6
2020-Sep-28 10:15 120 2 gusting 4 19.6
2020-Sep-28 10:10 120 2 gusting 4 19.6
2020-Sep-28 10:05 120 2 gusting 5 19.6
2020-Sep-28 10:00 120 3 gusting 6 19.6
2020-Sep-28 09:55 120 4 gusting 6 19.6
2020-Sep-28 09:50 120 3 gusting 6 19.6
2020-Sep-28 09:45 120 3 gusting 6 19.6
2020-Sep-28 09:40 120 3 gusting 6 19.8
2020-Sep-28 09:35 120 3 gusting 6 19.8
2020-Sep-28 09:30 120 3 gusting 6 19.8
2020-Sep-28 09:25 120 4 gusting 6 19.8
2020-Sep-28 09:20 120 4 gusting 6 19.8
2020-Sep-28 09:15 120 3 gusting 5 19.8
2020-Sep-28 09:10 120 3 gusting 6 19.6
2020-Sep-28 09:05 120 4 gusting 6 19.8
2020-Sep-28 09:00 120 2 gusting 7 19.8
2020-Sep-28 08:55 120 5 gusting 7 19.8
2020-Sep-28 08:50 120 4 gusting 7 19.8
2020-Sep-28 08:45 120 4 gusting 7 19.8
2020-Sep-28 08:40 120 3 gusting 6 19.8
2020-Sep-28 08:35 120 4 gusting 6 19.6
2020-Sep-28 08:30 120 3 gusting 6 19.4
2020-Sep-28 08:25 005 3 gusting 5 19.4
2020-Sep-28 08:20 120 3 gusting 4 19.4
2020-Sep-28 08:15 120 3 gusting 4 19.4
2020-Sep-28 08:10 120 3 gusting 4 19.4
2020-Sep-28 08:05 120 2 gusting 3 19.4
2020-Sep-28 08:00 120 2 gusting 4 19.4
2020-Sep-28 07:55 120 2 gusting 4 19.4
2020-Sep-28 07:50 120 3 gusting 4 19.4
2020-Sep-28 07:45 120 2 gusting 4 19.4
2020-Sep-28 07:40 120 2 gusting 3 19.4
2020-Sep-28 07:35 120 2 gusting 5 19.4
2020-Sep-28 07:30 120 3 gusting 5 19.6
2020-Sep-28 07:25 120 4 gusting 5 19.6
2020-Sep-28 07:20 120 3 gusting 5 19.6
2020-Sep-28 07:15 120 3 gusting 5 19.6
2020-Sep-28 07:10 120 3 gusting 5 19.8
2020-Sep-28 07:05 120 3 gusting 6 19.9
2020-Sep-28 07:00 120 4 gusting 6 19.9
2020-Sep-28 06:55 120 4 gusting 6 19.9
2020-Sep-28 06:50 120 4 gusting 6 19.9
2020-Sep-28 06:45 120 3 gusting 6 19.9
2020-Sep-28 06:40 120 4 gusting 7 19.9
2020-Sep-28 06:35 120 4 gusting 7 20.1
2020-Sep-28 06:30 120 4 gusting 7 20.1
2020-Sep-28 06:25 120 6 gusting 7 20.1
2020-Sep-28 06:20 120 5 gusting 7 20.1
2020-Sep-28 06:15 120 4 gusting 8 20.1
2020-Sep-28 06:10 120 6 gusting 8 20.1
2020-Sep-28 06:05 120 6 gusting 10 20.1
2020-Sep-28 06:00 120 5 gusting 10 20.1
2020-Sep-28 05:55 120 3 gusting 6 20.1
2020-Sep-28 05:50 120 3 gusting 5 20.1
2020-Sep-28 05:45 120 3 gusting 5 20.1
2020-Sep-28 05:40 120 3 gusting 7 20.1
2020-Sep-28 05:35 120 3 gusting 7 20.1
2020-Sep-28 05:30 005 4 gusting 6 20.1
2020-Sep-28 05:25 005 3 gusting 6 20.1
2020-Sep-28 05:20 120 3 gusting 5 20.2
2020-Sep-28 05:15 120 3 gusting 5 20.4
2020-Sep-28 05:10 005 3 gusting 5 20.4
2020-Sep-28 05:05 005 3 gusting 5 20.4
2020-Sep-28 05:00 120 3 gusting 5 20.4
2020-Sep-28 04:55 120 3 gusting 5 20.4
2020-Sep-28 04:50 120 2 gusting 5 20.4
2020-Sep-28 04:45 120 3 gusting 5 20.4
2020-Sep-28 04:40 120 3 gusting 4 20.4
2020-Sep-28 04:35 120 3 gusting 4 20.6
2020-Sep-28 04:30 120 2 gusting 4 20.6
2020-Sep-28 04:25 120 2 gusting 5 20.6
2020-Sep-28 04:20 120 2 gusting 5 20.8
2020-Sep-28 04:15 120 3 gusting 4 20.9
2020-Sep-28 04:10 120 3 gusting 4 20.8
2020-Sep-28 04:05 120 1 gusting 5 20.8
2020-Sep-28 04:00 120 2 gusting 6 20.8
2020-Sep-28 03:55 120 3 gusting 6 20.8
2020-Sep-28 03:50 120 3 gusting 7 20.9
2020-Sep-28 03:45 120 4 gusting 7 20.9
2020-Sep-28 03:40 120 4 gusting 9 21.1
2020-Sep-28 03:35 120 6 gusting 9 21.1
2020-Sep-28 03:30 120 5 gusting 7 21.1
2020-Sep-28 03:25 120 4 gusting 6 21.1
2020-Sep-28 03:20 120 4 gusting 6 21.1
2020-Sep-28 03:15 120 4 gusting 6 21.1
2020-Sep-28 03:10 120 4 gusting 7 21.1
2020-Sep-28 03:05 005 5 gusting 7 21.2
2020-Sep-28 03:00 120 5 gusting 7 21.2
2020-Sep-28 02:55 005 4 gusting 8 21.2
2020-Sep-28 02:50 005 5 gusting 8 21.2
2020-Sep-28 02:45 005 4 gusting 8 21.2
2020-Sep-28 02:40 005 4 gusting 7 21.2
2020-Sep-28 02:35 005 4 gusting 7 21.4
2020-Sep-28 02:30 005 4 gusting 7 21.4
2020-Sep-28 02:25 005 4 gusting 7 21.4
2020-Sep-28 02:20 005 4 gusting 7 21.6
2020-Sep-28 02:15 005 5 gusting 8 21.6
2020-Sep-28 02:10 005 4 gusting 9 21.6
2020-Sep-28 02:05 180 5 gusting 9 21.6
2020-Sep-28 02:00 180 3 gusting 6 21.6
2020-Sep-28 01:55 180 3 gusting 6 21.6
2020-Sep-28 01:50 180 3 gusting 5 21.6
2020-Sep-28 01:45 180 3 gusting 6 21.6
2020-Sep-28 01:40 180 3 gusting 6 21.6
2020-Sep-28 01:35 180 3 gusting 4 21.6
2020-Sep-28 01:30 180 2 gusting 4 21.6
2020-Sep-28 01:25 180 3 gusting 4 21.6
2020-Sep-28 01:20 180 2 gusting 5 21.6
2020-Sep-28 01:15 180 4 gusting 5 21.6
2020-Sep-28 01:10 180 2 gusting 4 21.6
2020-Sep-28 01:05 180 2 gusting 4 21.6
2020-Sep-28 01:00 180 3 gusting 6 21.6
2020-Sep-28 00:55 180 3 gusting 6 21.8
2020-Sep-28 00:50 180 3 gusting 4 21.8
2020-Sep-28 00:45 180 2 gusting 4 21.8
2020-Sep-28 00:40 180 2 gusting 4 21.8
2020-Sep-28 00:35 180 2 gusting 4 21.8
2020-Sep-28 00:30 180 2 gusting 3 21.9
2020-Sep-28 00:25 180 1 gusting 3 21.9
2020-Sep-28 00:20 180 2 gusting 3 21.9
2020-Sep-28 00:15 180 2 gusting 3 21.9
2020-Sep-28 00:10 180 2 gusting 3 21.9
2020-Sep-28 00:05 180 2 gusting 3 21.9
2020-Sep-28 00:00 180 2 gusting 4 21.9
2020-Sep-27 23:55 180 2 gusting 4 21.9
2020-Sep-27 23:50 180 2 gusting 3 21.9
2020-Sep-27 23:45 180 2 gusting 4 22.1
2020-Sep-27 23:40 180 3 gusting 4 22.1
2020-Sep-27 23:35 180 3 gusting 4 22.2
2020-Sep-27 23:30 180 3 gusting 4 22.4
2020-Sep-27 23:25 180 2 gusting 3 22.4
2020-Sep-27 23:20 180 2 gusting 4 22.4
2020-Sep-27 23:15 180 3 gusting 4 22.4
2020-Sep-27 23:10 180 3 gusting 4 22.4
2020-Sep-27 23:05 180 2 gusting 4 22.6
2020-Sep-27 23:00 180 3 gusting 4 22.6
2020-Sep-27 22:55 180 3 gusting 4 22.6
2020-Sep-27 22:50 180 3 gusting 5 22.8
2020-Sep-27 22:45 180 3 gusting 6 22.9
2020-Sep-27 22:40 180 4 gusting 6 22.9
2020-Sep-27 22:35 180 3 gusting 5 23.2
2020-Sep-27 22:30 180 3 gusting 5 23.4
2020-Sep-27 22:25 180 4 gusting 5 23.6
2020-Sep-27 22:20 180 3 gusting 5 23.8
2020-Sep-27 22:15 180 3 gusting 4 23.9
2020-Sep-27 22:10 180 3 gusting 4 24.1
2020-Sep-27 22:05 180 2 gusting 3 24.1
2020-Sep-27 22:00 180 2 gusting 3 24.2
2020-Sep-27 21:55 180 1 gusting 3 24.4
2020-Sep-27 21:50 180 1 gusting 4 24.4
2020-Sep-27 21:45 180 2 gusting 4 24.4
2020-Sep-27 21:40 180 3 gusting 4 24.4
2020-Sep-27 21:35 180 2 gusting 5 24.4
2020-Sep-27 21:30 180 3 gusting 6 24.2
2020-Sep-27 21:25 180 4 gusting 6 24.4
2020-Sep-27 21:20 180 4 gusting 6 24.4
2020-Sep-27 21:15 180 4 gusting 6 24.4
2020-Sep-27 21:10 180 3 gusting 5 24.4
2020-Sep-27 21:05 180 3 gusting 4 24.6
2020-Sep-27 21:00 180 3 gusting 5 24.4
2020-Sep-27 20:55 180 4 gusting 5 24.6
2020-Sep-27 20:50 180 3 gusting 6 24.8
2020-Sep-27 20:45 180 3 gusting 6 24.8
2020-Sep-27 20:40 180 3 gusting 6 24.9
2020-Sep-27 20:35 180 4 gusting 6 24.9
2020-Sep-27 20:30 180 3 gusting 6 24.9
2020-Sep-27 20:25 180 4 gusting 6 25.1
2020-Sep-27 20:20 180 4 gusting 6 25.1
2020-Sep-27 20:15 180 4 gusting 6 25.2
2020-Sep-27 20:10 180 4 gusting 7 25.2
2020-Sep-27 20:05 180 5 gusting 7 25.1
2020-Sep-27 20:00 180 4 gusting 7 25.1
2020-Sep-27 19:55 180 5 gusting 7 25.1
2020-Sep-27 19:50 180 5 gusting 7 24.9
2020-Sep-27 19:45 180 4 gusting 6 25.4
2020-Sep-27 19:40 180 4 gusting 6 25.4
2020-Sep-27 19:35 180 4 gusting 5 25.2
2020-Sep-27 19:30 180 3 gusting 5 25.1
2020-Sep-27 19:25 180 3 gusting 5 25.2
2020-Sep-27 19:20 180 4 gusting 5 25.4
2020-Sep-27 19:15 180 3 gusting 5 25.4
2020-Sep-27 19:10 180 3 gusting 5 25.4
2020-Sep-27 19:05 180 3 gusting 6 25.4
2020-Sep-27 19:00 180 4 gusting 6 25.2
2020-Sep-27 18:55 180 5 gusting 6 25.1
2020-Sep-27 18:50 180 4 gusting 5 25.2
2020-Sep-27 18:45 180 2 gusting 5 25.2
2020-Sep-27 18:40 180 4 gusting 5 25.4
2020-Sep-27 18:35 180 3 gusting 5 25.6
2020-Sep-27 18:30 180 2 gusting 5 25.4
2020-Sep-27 18:25 180 3 gusting 5 25.4
2020-Sep-27 18:20 180 1 gusting 5 25.6
2020-Sep-27 18:15 180 3 gusting 6 25.2
2020-Sep-27 18:10 180 4 gusting 6 25.4
2020-Sep-27 18:05 180 1 gusting 5 25.4
2020-Sep-27 18:00 180 2 gusting 5 25.1
2020-Sep-27 17:55 180 2 gusting 5 24.8
2020-Sep-27 17:50 180 4 gusting 5 24.8
2020-Sep-27 17:45 180 3 gusting 5 24.9
2020-Sep-27 17:40 180 4 gusting 5 24.9
2020-Sep-27 17:35 180 4 gusting 6 24.9
2020-Sep-27 17:30 180 4 gusting 6 25.1
2020-Sep-27 17:25 180 4 gusting 6 25.1
2020-Sep-27 17:20 005 3 gusting 5 25.1
2020-Sep-27 17:15 180 3 gusting 6 25.1
2020-Sep-27 17:10 005 3 gusting 6 25.1
2020-Sep-27 17:05 005 2 gusting 4 25.2
2020-Sep-27 17:00 005 3 gusting 5 25.1
2020-Sep-27 16:55 180 3 gusting 5 25.1
2020-Sep-27 16:50 180 4 gusting 5 25.1
2020-Sep-27 16:45 180 2 gusting 5 24.4
2020-Sep-27 16:40 180 2 gusting 5 24.4
2020-Sep-27 16:35 180 2 gusting 5 24.4
2020-Sep-27 16:30 180 2 gusting 5 24.1
2020-Sep-27 16:25 180 2 gusting 5 23.9
2020-Sep-27 16:20 180 2 gusting 5 23.6
2020-Sep-27 16:15 180 3 gusting 6 23.6
2020-Sep-27 16:10 180 4 gusting 6 23.2
2020-Sep-27 16:05 180 4 gusting 7 23.2
2020-Sep-27 16:00 180 4 gusting 7 23.1
2020-Sep-27 15:55 180 4 gusting 6 23.1
2020-Sep-27 15:50 180 4 gusting 7 22.9
2020-Sep-27 15:45 180 5 gusting 7 22.9
2020-Sep-27 15:40 180 5 gusting 7 22.9
2020-Sep-27 15:35 180 3 gusting 6 22.9
2020-Sep-27 15:30 180 5 gusting 6 22.9
2020-Sep-27 15:25 180 3 gusting 7 22.9
2020-Sep-27 15:20 180 4 gusting 7 22.6
2020-Sep-27 15:15 180 4 gusting 6 22.4
2020-Sep-27 15:10 180 4 gusting 6 22.2
2020-Sep-27 15:05 180 3 gusting 6 22.2
2020-Sep-27 15:00 180 3 gusting 6 22.1
2020-Sep-27 14:55 180 3 gusting 6 21.9
2020-Sep-27 14:50 180 4 gusting 6 21.9
2020-Sep-27 14:45 180 5 gusting 7 21.9
2020-Sep-27 14:40 180 3 gusting 7 21.6
2020-Sep-27 14:35 180 4 gusting 7 21.4
2020-Sep-27 14:30 180 5 gusting 8 21.6
2020-Sep-27 14:25 180 5 gusting 8 21.2
2020-Sep-27 14:20 180 4 gusting 7 21.1
2020-Sep-27 14:15 180 4 gusting 8 21.1
2020-Sep-27 14:10 180 6 gusting 8 20.9
2020-Sep-27 14:05 180 6 gusting 8 20.9
2020-Sep-27 14:00 180 6 gusting 8 20.9
2020-Sep-27 13:55 180 6 gusting 8 20.8
2020-Sep-27 13:50 005 6 gusting 8 20.9
2020-Sep-27 13:45 005 5 gusting 7 20.9
2020-Sep-27 13:40 005 4 gusting 7 20.9
2020-Sep-27 13:35 180 5 gusting 8 20.6
2020-Sep-27 13:30 180 6 gusting 8 20.6
2020-Sep-27 13:25 180 6 gusting 7 20.6
2020-Sep-27 13:20 180 5 gusting 7 20.6
2020-Sep-27 13:15 180 3 gusting 5 20.6
2020-Sep-27 13:10 180 3 gusting 6 20.6
2020-Sep-27 13:05 180 4 gusting 6 20.4
2020-Sep-27 13:00 005 4 gusting 6 20.4
2020-Sep-27 12:55 005 4 gusting 6 20.4
2020-Sep-27 12:50 005 3 gusting 5 20.4
2020-Sep-27 12:45 005 3 gusting 4 20.4
2020-Sep-27 12:40 005 3 gusting 5 20.4
2020-Sep-27 12:35 005 3 gusting 5 20.2
2020-Sep-27 12:30 120 2 gusting 6 20.2
2020-Sep-27 12:25 120 4 gusting 6 20.2
2020-Sep-27 12:20 120 3 gusting 6 20.1
2020-Sep-27 12:15 120 4 gusting 6 20.1
2020-Sep-27 12:10 120 4 gusting 6 20.1
2020-Sep-27 12:05 120 3 gusting 6 20.1
2020-Sep-27 12:00 120 4 gusting 6 20.1
2020-Sep-27 11:55 120 4 gusting 6 19.9
2020-Sep-27 11:50 120 3 gusting 3 19.9
2020-Sep-27 11:45 120 2 gusting 3 19.9
2020-Sep-27 11:40 120 1 gusting 2 19.9
2020-Sep-27 11:35 120 1 gusting 2 19.9
2020-Sep-27 11:30 120 1 gusting 2 19.9
2020-Sep-27 11:25 120 1 gusting 2 19.9
2020-Sep-27 11:20 120 1 gusting 2 19.9
2020-Sep-27 11:15 120 1 gusting 2 19.9
2020-Sep-27 11:10 120 1 gusting 2 19.9
2020-Sep-27 11:05 120 1 gusting 2 19.9
2020-Sep-27 11:00 120 1 gusting 3 19.9
2020-Sep-27 10:55 120 1 gusting 3 19.9
2020-Sep-27 10:50 120 1 gusting 3 19.9
2020-Sep-27 10:45 120 1 gusting 2 19.9
2020-Sep-27 10:40 240 1 gusting 2 19.9
2020-Sep-27 10:35 120 1 gusting 4 19.9
2020-Sep-27 10:30 120 1 gusting 4 19.9
2020-Sep-27 10:25 120 2 gusting 4 19.9
2020-Sep-27 10:20 120 2 gusting 4 19.9
2020-Sep-27 10:15 120 3 gusting 4 19.9
2020-Sep-27 10:10 120 2 gusting 4 19.9
2020-Sep-27 10:05 120 2 gusting 4 19.9
2020-Sep-27 10:00 120 2 gusting 4 19.9
2020-Sep-27 09:55 120 2 gusting 4 19.9
2020-Sep-27 09:50 240 2 gusting 3 19.9
2020-Sep-27 09:45 120 2 gusting 3 19.9
2020-Sep-27 09:40 120 1 gusting 3 19.9
2020-Sep-27 09:35 120 2 gusting 4 19.9
2020-Sep-27 09:30 120 2 gusting 4 19.9
2020-Sep-27 09:25 120 2 gusting 4 19.9
2020-Sep-27 09:20 120 2 gusting 4 19.9
2020-Sep-27 09:15 120 3 gusting 4 19.9
2020-Sep-27 09:10 120 3 gusting 4 19.9
2020-Sep-27 09:05 120 2 gusting 4 19.9
2020-Sep-27 09:00 120 2 gusting 4 19.9
2020-Sep-27 08:55 120 2 gusting 3 19.9
2020-Sep-27 08:50 240 1 gusting 2 19.9
2020-Sep-27 08:45 240 1 gusting 4 19.9
2020-Sep-27 08:40 120 2 gusting 4 19.9
2020-Sep-27 08:35 120 1 gusting 3 19.9
2020-Sep-27 08:30 120 1 gusting 3 19.9
2020-Sep-27 08:25 120 2 gusting 4 19.9
2020-Sep-27 08:20 120 2 gusting 4 19.9
2020-Sep-27 08:15 120 3 gusting 4 19.9
2020-Sep-27 08:10 120 3 gusting 4 19.9
2020-Sep-27 08:05 120 2 gusting 3 19.9
2020-Sep-27 08:00 120 1 gusting 3 19.9
2020-Sep-27 07:55 120 2 gusting 4 19.9
2020-Sep-27 07:50 120 2 gusting 3 19.9
2020-Sep-27 07:45 120 2 gusting 4 19.9
2020-Sep-27 07:40 120 3 gusting 4 19.9
2020-Sep-27 07:35 120 2 gusting 5 19.8
2020-Sep-27 07:30 120 3 gusting 5 19.8
2020-Sep-27 07:25 120 3 gusting 4 19.8
2020-Sep-27 07:20 120 1 gusting 4 19.9
2020-Sep-27 07:15 120 3 gusting 4 19.8
2020-Sep-27 07:10 120 2 gusting 4 19.8
2020-Sep-27 07:05 005 2 gusting 4 19.8
2020-Sep-27 07:00 005 2 gusting 4 19.8
2020-Sep-27 06:55 005 3 gusting 5 19.8
2020-Sep-27 06:50 005 3 gusting 5 19.8
2020-Sep-27 06:45 120 4 gusting 5 19.9
2020-Sep-27 06:40 120 3 gusting 4 19.9
2020-Sep-27 06:35 120 2 gusting 3 19.9
2020-Sep-27 06:30 005 1 gusting 2 19.9
2020-Sep-27 06:25 005 1 gusting 2 19.9
2020-Sep-27 06:20 005 1 gusting 2 19.9
2020-Sep-27 06:15 005 1 gusting 2 19.9
2020-Sep-27 06:10 005 1 gusting 3 19.9
2020-Sep-27 06:05 005 2 gusting 3 19.9
2020-Sep-27 06:00 005 2 gusting 3 19.9
2020-Sep-27 05:55 005 1 gusting 4 19.9
2020-Sep-27 05:50 005 3 gusting 4 19.9
2020-Sep-27 05:45 005 2 gusting 3 19.9
2020-Sep-27 05:40 005 1 gusting 2 19.9
2020-Sep-27 05:35 005 0 gusting 2 19.9
2020-Sep-27 05:30 005 1 gusting 2 19.8
2020-Sep-27 05:25 005 1 gusting 2 19.8
2020-Sep-27 05:20 005 1 gusting 2 19.9
2020-Sep-27 05:15 005 1 gusting 4 19.8
2020-Sep-27 05:10 005 1 gusting 4 19.8
2020-Sep-27 05:05 005 3 gusting 4 19.8
2020-Sep-27 05:00 180 2 gusting 4 19.8
2020-Sep-27 04:55 180 2 gusting 4 19.8
2020-Sep-27 04:50 180 3 gusting 4 19.8
2020-Sep-27 04:45 180 2 gusting 4 19.8
2020-Sep-27 04:40 180 2 gusting 4 19.6
2020-Sep-27 04:35 180 1 gusting 3 19.6
2020-Sep-27 04:30 180 2 gusting 3 19.6
2020-Sep-27 04:25 180 1 gusting 3 19.6
2020-Sep-27 04:20 180 1 gusting 3 19.4
2020-Sep-27 04:15 180 1 gusting 3 19.4
2020-Sep-27 04:10 180 1 gusting 2 19.4
2020-Sep-27 04:05 180 0 gusting 2 19.4
2020-Sep-27 04:00 180 1 gusting 2 19.4